This demonstration page uses our WeatherBlox Daily Observations layout. Learn more.

Left ArrowRight Arrow

Hourly Observations for January 23, 2017

Temp ( °F °C ) Dew Point ( °F °C ) Humidity (%) Winds ( mph kmh ) Pressure ( in mb ) Visibility ( mi km ) Precip ( " mm )
12:53 am 00:53 Cloudy 44 6.7 41 5 89 89 S 13 20 29.66 1005 10 16 0.00 0.00
1:53 am 01:53 Cloudy 44 6.7 41 5 89 89 SSW 10 17 29.68 1005 10 16 0.00 0.00
2:21 am 02:21 Cloudy 45 7 41 5 87 87 S 10 17 29.71 1006 10 16 0.00 0.00
2:53 am 02:53 Cloudy 44 6.7 41 5 89 89 SW 6 9 29.69 1005 10 16 0.00 0.00
3:53 am 03:53 Cloudy 44 6.7 41 5 89 89 SSW 6 9 29.70 1006 10 16 0.00 0.00
4:51 am 04:51 Cloudy 43 6 41 5 93 93 Calm 29.74 1007 10 16 0.00 0.00
4:53 am 04:53 Cloudy 43 6.1 41 5 93 93 Calm 29.70 1006 10 16 0.00 0.00
5:53 am 05:53 Cloudy 43 6.1 42 5.6 97 97 Calm 29.72 1006 10 16 0.00 0.00
6:00 am 06:00 Cloudy with Light Rain 43 6 43 6 100 100 Calm 29.74 1007 10 16 0.00 0.00
6:53 am 06:53 Cloudy with Light Rain 43 6.1 42 5.6 97 97 W 3 6 29.73 1007 7 11 0.02 0.51
7:53 am 07:53 Cloudy 42 5.6 41 5 96 96 Calm 29.75 1007 10 16 0.02 0.51
8:17 am 08:17 Cloudy 43 6.1 42 5.6 97 97 Calm 29.80 1009 10 16 0.00 0.00
8:53 am 08:53 Cloudy 43 6.1 42 5.6 97 97 SW 3 6 29.78 1009 10 16 0.00 0.00
9:44 am 09:44 Cloudy 45 7 39 4 81 81 S 10 17 29.83 1010 10 16 0.00 0.00
9:53 am 09:53 Cloudy 45 7.2 40 4.4 83 83 S 12 19 29.80 1009 10 16 0.00 0.00
9:55 am 09:55 Cloudy 45 7.2 40 4.4 83 83 S 10 17 29.83 1010 10 16 0.00 0.00
10:53 am 10:53 Cloudy 45 7.2 39 3.9 80 80 S 9 15 29.81 1009 10 16 0.00 0.00
11:53 am 11:53 Cloudy 45 7.2 39 3.9 80 80 S 7 11 29.80 1009 10 16 0.00 0.00
12:40 pm 12:40 Cloudy 46 8 39 4 76 76 SSW 8 13 29.83 1010 10 16 0.00 0.00
12:53 pm 12:53 Cloudy 47 8.3 39 3.9 74 74 S 8 13 29.78 1008 10 16 0.00 0.00
1:53 pm 13:53 Mostly Cloudy 48 8.9 39 3.9 71 71 SSW 8 13 29.77 1008 10 16 0.00 0.00
2:53 pm 14:53 Partly Cloudy 49 9.4 37 2.8 64 64 S 10 17 29.78 1008 10 16 0.00 0.00
3:53 pm 15:53 Partly Cloudy 48 8.9 38 3.3 68 68 SSW 7 11 29.78 1009 10 16 0.00 0.00
4:53 pm 16:53 Mostly Cloudy 48 8.9 39 3.9 71 71 SSE 3 6 29.80 1009 10 16 0.00 0.00
5:53 pm 17:53 Cloudy 46 7.8 40 4.4 79 79 NE 5 7 29.81 1009 10 16 0.00 0.00
6:53 pm 18:53 Cloudy 45 7.2 41 5 86 86 N 6 9 29.83 1010 10 16 0.00 0.00
7:53 pm 19:53 Cloudy 44 6.7 40 4.4 85 85 NNE 6 9 29.85 1011 10 16 0.00 0.00
8:53 pm 20:53 Cloudy 44 6.7 40 4.4 85 85 N 5 7 29.87 1011 10 16 0.00 0.00
9:53 pm 21:53 Cloudy with Light Rain 44 6.7 40 4.4 85 85 N 6 9 29.88 1012 10 16 0.00 0.03
10:53 pm 22:53 Cloudy with Light Rain 42 5.6 40 4.4 92 92 NNW 7 11 29.90 1013 10 16 0.01 0.25
11:53 pm 23:53 Cloudy 42 5.6 40 4.4 92 92 W 3 6 29.92 1013 10 16 0.01 0.25

Powered by AerisWeather